Salina, KS

2:39 PM CDT on March 27, 2017 (GMT -0500)
Salina Municipal

Weather History for KSLN - August, 2014

Change the Weather History Date:

Sunday, August 24, 2014

  Actual Average Record
Temperature  
Mean Temperature 90 °F 79 °F  
Max Temperature 102 °F 90 °F 111 °F (1936)
Min Temperature 77 °F 67 °F 45 °F (1928)
Degree Days  
Heating Degree Days 0 0  
Month to date heating degree days 0 0  
Since 1 June heating degree days 1 7  
Since 1 July heating degree days 0 0  
Cooling Degree Days 25 14  
Month to date cooling degree days 412 366  
Year to date cooling degree days 1444 1320  
Since 1 June cooling degree days 1212 1192  
Growing Degree Days 40 (Base 50)    
Moisture  
Dew Point 62 °F    
Average Humidity 43    
Maximum Humidity 58    
Minimum Humidity 27    
Precipitation  
Precipitation 0.08 in 0.12 in 2.18 in (1972)
Month to date precipitation 2.21 3.11  
Year to date precipitation 18.52 23.50  
Sea Level Pressure  
Sea Level Pressure 29.79 in    
Wind  
Wind Speed 15 mph (South)    
Max Wind Speed 23 mph    
Max Gust Speed 30 mph    
Visibility 10 miles    
Events Rain , Thunderstorm    
T = Trace of Precipitation, MM = Missing Value Source: NWS Daily Summary

Daily Weather History Graph

Daily Weather History Graph

Search for Another Location

Airport or City:

Trip Planner

Search our weather history database for the weather conditions in past years. The results will help you decide how hot, cold, wet, or windy it might be!

Date:

Astronomy

Aug. 24, 2014 Rise Set
Actual Time 6:52 AM CDT 8:12 PM CDT
Civil Twilight 6:24 AM CDT 8:40 PM CDT
Nautical Twilight 5:51 AM CDT 9:13 PM CDT
Astronomical Twilight 5:16 AM CDT 9:48 PM CDT
Moon 6:04 AM CDT (8/24) 7:32 PM CDT (8/24)
Length of Visible Light 14h 15m
Length of Day
13h 20m
Waning Crescent, 1% of the Moon is Illuminated
Aug 24
Waning Crescent
Aug 25
New
Sep 2
First Quarter
Sep 8
Full
Sep 15
Last Quarter

Hourly Weather History & Observations

Time (CDT) Temp. Heat Index Dew Point Humidity Pressure Visibility Wind Dir Wind Speed Gust Speed Precip Events Conditions
12:53 AM 84.0 °F 83.8 °F 59.0 °F 43% 29.76 in 10.0 mi South 16.1 mph 27.6 mph N/A   Clear
1:53 AM 82.9 °F 82.6 °F 57.9 °F 42% 29.76 in 10.0 mi South 15.0 mph 25.3 mph N/A   Clear
2:53 AM 82.0 °F 82.0 °F 57.9 °F 44% 29.75 in 10.0 mi South 16.1 mph - N/A   Clear
3:53 AM 81.0 °F 81.1 °F 57.9 °F 45% 29.75 in 10.0 mi South 20.7 mph 27.6 mph N/A   Clear
4:53 AM 80.1 °F 80.6 °F 57.9 °F 47% 29.75 in 10.0 mi South 18.4 mph 27.6 mph N/A   Clear
5:53 AM 79.0 °F - 59.0 °F 50% 29.75 in 10.0 mi South 15.0 mph 23.0 mph N/A   Clear
6:53 AM 78.1 °F - 59.0 °F 52% 29.77 in 10.0 mi South 15.0 mph 20.7 mph N/A   Clear
7:53 AM 79.0 °F - 60.1 °F 52% 29.78 in 10.0 mi South 13.8 mph - N/A   Clear
8:53 AM 82.0 °F 82.4 °F 60.1 °F 47% 29.79 in 10.0 mi SSW 17.3 mph - N/A   Clear
9:53 AM 84.9 °F 85.0 °F 61.0 °F 44% 29.80 in 10.0 mi SSW 15.0 mph - N/A   Clear
10:53 AM 91.0 °F 90.2 °F 59.0 °F 34% 29.81 in 10.0 mi SSW 16.1 mph - N/A   Clear
11:53 AM 93.0 °F 93.0 °F 61.0 °F 34% 29.81 in 10.0 mi South 13.8 mph 20.7 mph N/A   Clear
12:53 PM 95.0 °F 95.2 °F 61.0 °F 32% 29.80 in 10.0 mi SSW 11.5 mph 17.3 mph N/A   Partly Cloudy
1:53 PM 98.1 °F 98.6 °F 61.0 °F 29% 29.79 in 10.0 mi SSW 18.4 mph 21.9 mph N/A   Partly Cloudy
2:53 PM 100.9 °F 103.3 °F 63.0 °F 29% 29.76 in 10.0 mi South 16.1 mph 24.2 mph N/A   Partly Cloudy
3:53 PM 102.0 °F 103.9 °F 62.1 °F 27% 29.74 in 10.0 mi SSW 19.6 mph 28.8 mph N/A   Clear
4:53 PM 100.9 °F 102.7 °F 62.1 °F 28% 29.73 in 10.0 mi South 16.1 mph 26.5 mph N/A   Partly Cloudy
5:46 PM 96.1 °F 97.3 °F 63.0 °F 33% 29.77 in 10.0 mi South 11.5 mph - 0.00 in Thunderstorm Mostly Cloudy
5:53 PM 97.0 °F 97.4 °F 61.0 °F 30% 29.73 in 10.0 mi South 16.1 mph 23.0 mph 0.00 in Thunderstorm Thunderstorm
6:34 PM 91.9 °F 94.1 °F 64.9 °F 41% 29.78 in 10.0 mi Variable 3.5 mph - N/A Thunderstorm Mostly Cloudy
6:53 PM 97.0 °F 96.5 °F 59.0 °F 28% 29.73 in 10.0 mi South 11.5 mph - N/A Thunderstorm Scattered Clouds
7:02 PM 96.1 °F 96.0 °F 60.1 °F 30% 29.77 in 10.0 mi South 10.4 mph - N/A   Partly Cloudy
7:53 PM 93.9 °F 94.0 °F 61.0 °F 33% 29.73 in 10.0 mi South 17.3 mph - N/A   Scattered Clouds
8:53 PM 91.4 °F 92.1 °F 62.6 °F 38% 29.82 in 10.0 mi SSE 15.0 mph 24.2 mph N/A   Mostly Cloudy
9:04 PM 91.0 °F 91.9 °F 63.0 °F 39% 29.83 in 10.0 mi South 11.5 mph 23.0 mph N/A Thunderstorm Mostly Cloudy
9:21 PM 88.0 °F 89.3 °F 64.0 °F 45% 29.84 in 10.0 mi Calm Calm - 0.00 in Rain , Thunderstorm Light Thunderstorms and Rain
9:36 PM 87.1 °F 88.3 °F 64.0 °F 46% 29.86 in 10.0 mi WNW 4.6 mph - 0.00 in Thunderstorm Overcast
9:48 PM 87.8 °F 89.4 °F 64.4 °F 46% 29.88 in 7.0 mi SW 12.7 mph 18.4 mph 0.04 in Rain , Thunderstorm Light Thunderstorms and Rain
9:53 PM 84.0 °F 86.5 °F 66.9 °F 56% 29.82 in 4.0 mi South 12.7 mph 23.0 mph 0.07 in Rain , Thunderstorm Heavy Thunderstorms and Rain
10:07 PM 82.9 °F 87.0 °F 70.0 °F 65% 29.88 in 6.0 mi SSW 8.1 mph - 0.01 in Rain Light Rain
10:53 PM 81.0 °F 83.3 °F 66.9 °F 62% 29.83 in 6.0 mi SSE 10.4 mph - 0.01 in   Haze
11:53 PM 81.0 °F 82.7 °F 64.9 °F 58% 29.83 in 10.0 mi South 10.4 mph - N/A   Clear